Theta_e
325 326 326 326 325 323 320 318 318 318 318 317 317 317 317 317 316 316 316 316 316 316 317 317 319 322 325 328 330 331 338 337
327 327 328 328 328 327 324 321 319 318 318 318 317 317 317 317 317 316 316 316 316 316 316 316 317 317 318 320 326 330 333 336
328 329 329 329 329 329 328 325 322 320 318 318 318 318 318 318 317 317 317 316 316 316 316 316 316 316 316 316 316 319 327 329
331 331 330 331 336 330 329 328 325 322 320 319 318 320 318 319 318 318 317 317 317 317 317 316 316 318 316 316 315 325 324 323
342 334 333 334 338 336 332 331 330 327 325 322 321 331 327 328 326 319 318 318 318 318 318 318 318 327 327 324 325 326 327 328
344 343 338 334 339 340 337 338 337 336 334 330 330 333 334 333 335 325 320 320 320 321 321 320 327 328 329 329 330 329 328 329
344 345 344 337 340 341 340 339 339 340 340 338 336 337 336 335 335 334 333 332 330 331 330 329 331 330 330 332 334 334 333 332
344 344 345 344 340 341 340 339 341 341 342 342 338 339 337 337 335 336 336 336 334 335 334 334 334 333 334 335 336 334 335 336
343 343 344 343 340 342 342 342 342 342 342 342 342 341 339 338 337 337 337 337 337 336 336 336 337 338 338 339 338 337 337 338
342 343 344 342 341 341 343 343 343 343 343 343 344 341 341 339 338 338 338 338 338 337 337 338 338 338 338 338 338 338 337 338
341 343 343 341 342 343 343 343 343 343 343 343 343 341 340 341 340 338 338 338 338 338 338 338 337 338 337 337 338 339 337 338
339 343 343 342 344 343 343 343 343 343 342 343 343 340 339 340 341 339 338 339 338 338 338 338 338 339 339 338 338 337 336 337
338 341 343 343 344 343 342 342 343 343 343 342 342 342 336 338 340 340 339 339 338 338 338 338 339 338 338 339 338 338 337 337
340 342 344 343 343 343 343 342 343 343 343 342 341 339 336 334 334 339 340 340 339 338 338 338 339 338 340 339 338 338 337 336
345 345 347 349 347 346 345 345 344 345 344 344 343 341 339 338 338 335 339 339 339 338 338 337 338 337 337 338 336 335 336 329
330 339 344 347 349 348 347 346 346 346 346 346 345 343 340 340 340 338 337 337 338 338 337 337 338 336 336 336 336 333 333 328
326 327 327 330 337 345 344 344 344 344 346 347 346 345 344 341 341 340 337 337 337 338 338 337 337 337 338 335 335 333 332 331
324 325 327 326 326 333 335 335 334 341 342 346 347 346 345 343 342 342 340 337 336 336 338 337 336 337 339 336 334 334 333 332
320 324 325 327 326 324 328 327 339 342 342 343 345 344 345 341 342 341 341 340 336 334 336 338 336 337 337 336 335 334 332 332
322 322 324 325 325 328 326 333 338 341 343 343 345 344 342 341 340 342 341 341 339 333 339 339 338 337 337 337 334 333 332 333
Wind_Speed
31 29 27 24 22 21 20 20 19 19 18 17 16 15 15 13 12 12 12 11 11 11 10 10 11 10 9 9 8 8 10 3
32 31 30 27 25 22 20 19 19 18 18 17 16 16 15 14 13 13 12 11 11 11 11 10 10 10 10 9 8 7 6 3
33 33 32 30 27 25 22 21 19 19 18 18 18 17 17 16 15 14 13 12 12 11 11 11 10 9 9 8 7 5 6 5
32 33 33 31 23 28 26 24 23 23 22 22 20 18 18 17 17 16 15 14 14 13 12 11 10 8 9 8 7 3 7 6
28 33 32 31 24 25 28 26 26 26 25 24 22 17 17 17 17 19 19 17 16 15 14 13 11 8 9 6 4 10 5 6
28 29 33 33 26 23 24 22 24 23 24 25 22 20 20 18 15 18 19 19 17 16 15 13 11 13 12 11 11 8 8 8
30 30 30 34 32 25 25 25 23 22 22 25 24 21 22 20 18 16 16 16 16 16 14 14 15 14 13 12 11 10 9 9
31 30 30 30 32 29 29 28 23 24 23 24 28 24 23 20 20 19 18 17 16 16 15 15 14 13 13 12 12 11 10 10
33 33 32 32 33 30 28 24 25 25 25 27 28 28 25 22 21 21 19 18 18 17 16 15 13 13 13 13 12 13 13 15
32 31 32 33 31 31 27 25 25 23 23 24 27 28 26 26 21 21 20 20 19 18 17 16 16 16 15 15 14 16 16 15
33 32 32 34 32 28 28 27 27 24 24 25 27 29 29 27 23 22 23 21 21 20 19 18 19 19 21 18 17 17 16 13
33 33 32 33 28 29 25 25 26 25 26 26 29 30 30 31 25 26 26 23 22 22 22 19 18 17 18 16 18 15 13 13
34 33 33 32 31 30 28 29 26 28 28 30 30 30 29 32 29 27 29 26 26 25 23 21 21 19 17 16 16 15 15 13
36 33 32 33 30 29 27 28 27 27 29 31 33 32 31 33 34 30 30 27 28 29 27 24 24 21 19 13 13 14 15 14
30 31 31 31 31 28 27 26 27 28 33 32 33 34 33 33 35 36 33 33 30 33 31 29 28 27 25 14 10 15 13 11
27 29 30 32 33 33 33 33 34 36 35 33 31 36 36 36 36 37 39 38 33 33 33 31 31 26 28 27 22 11 12 6
23 24 27 30 33 37 38 41 36 34 35 33 35 34 37 38 39 40 40 42 38 34 33 33 31 28 31 25 29 29 26 20
28 28 27 29 34 36 41 40 41 37 35 33 34 36 37 39 40 40 41 44 42 38 37 36 32 33 29 24 27 30 31 28
25 24 25 25 29 34 37 39 38 39 34 36 36 37 39 43 41 44 43 44 45 42 39 37 33 36 35 30 28 27 28 24
21 24 24 26 28 29 33 36 36 39 36 36 35 35 37 39 38 41 42 42 43 42 37 36 33 33 33 33 32 31 27 24
Wind_Direction
177 177 178 180 180 181 182 183 183 183 182 182 180 179 180 181 181 180 180 179 178 177 178 178 177 181 183 181 174 150 124 161
180 181 181 183 185 187 187 187 187 188 188 187 186 186 186 188 189 190 190 189 189 188 189 192 195 198 200 202 203 188 143 215
184 185 185 187 190 190 191 192 192 194 193 192 192 193 192 194 195 196 198 198 199 201 201 203 207 213 216 216 215 198 261 233
188 189 189 189 188 195 194 196 196 197 198 197 197 198 199 200 204 199 203 204 206 209 211 211 212 225 231 227 220 218 233 236
186 191 193 190 187 198 197 199 201 202 204 204 198 197 203 197 212 207 205 207 210 214 216 217 215 193 236 249 236 234 228 252
188 189 194 193 187 196 194 197 200 202 206 210 197 195 210 197 203 211 210 213 210 218 221 217 213 214 211 226 222 224 234 232
193 191 194 198 184 198 193 199 204 204 207 210 198 203 208 202 203 204 207 214 207 218 208 219 220 223 224 227 234 239 230 224
195 195 196 196 193 199 196 202 208 205 208 211 210 207 213 206 202 207 210 210 210 212 211 219 220 225 234 230 233 237 245 242
199 195 200 200 201 199 203 205 200 210 208 214 223 207 212 207 208 210 212 213 212 213 216 217 224 231 237 243 237 236 232 235
198 198 201 204 206 204 204 204 209 210 211 215 216 216 205 219 212 214 212 212 216 215 214 219 225 233 239 235 241 237 236 234
199 200 200 206 205 204 207 209 208 209 214 212 223 218 216 211 212 216 213 214 216 216 220 220 231 230 232 238 231 231 239 241
202 203 202 209 202 204 209 211 214 211 214 215 216 226 219 217 215 211 218 213 217 218 218 224 226 234 230 239 243 239 242 243
202 204 206 203 203 205 207 212 214 217 215 217 220 225 223 223 216 219 215 215 215 222 219 218 227 226 235 235 238 245 242 240
204 206 213 212 210 210 214 215 219 222 225 225 230 230 232 226 226 215 221 217 216 215 217 217 224 218 221 231 235 239 235 239
215 213 214 216 211 217 217 220 222 224 228 229 228 232 233 230 227 221 218 223 220 217 219 214 221 221 218 212 221 235 210 211
214 217 219 220 223 216 218 219 220 222 225 227 227 238 234 232 228 229 214 227 217 225 221 222 223 222 227 218 220 190 202 182
220 222 222 220 222 229 220 220 225 225 227 226 228 230 241 231 231 225 220 219 226 214 224 222 225 218 236 228 222 227 236 235
229 223 225 223 220 224 232 235 233 226 224 225 221 224 231 235 231 227 225 219 223 223 222 230 225 219 225 221 223 229 235 236
238 235 231 228 231 229 233 243 229 229 223 225 225 223 221 241 235 228 224 223 221 227 225 230 228 224 225 224 230 232 236 238
241 239 240 235 233 239 238 230 237 231 230 222 226 228 231 235 239 226 225 223 221 225 222 227 229 224 224 218 228 232 239 241